This is the latest recevied weather packets stored in our database for station/object WA4IKQ. If no packets are shown the sender has not sent any weather packets the latest 10 day(s).
| Time | Temp. | Humidity | Pressure | Rain* | Wind** | Luminosity | Snow |
|---|---|---|---|---|---|---|---|
| 1777822470 | 22.22° C | 71% | 1018.4 hPa | 0 mm | 2.68 m/s, 31° | - | - |
| 1777822354 | 22.22° C | 71% | 1018.3 hPa | 0 mm | 3.58 m/s, 35° | - | - |
| 1777822171 | 22.22° C | 71% | 1018.3 hPa | 0 mm | 3.58 m/s, 35° | - | - |
| 1777821957 | 21.67° C | 72% | 1018.2 hPa | 0 mm | 1.34 m/s, 27° | - | - |
| 1777821571 | 21.67° C | 72% | 1018.2 hPa | 0 mm | 1.34 m/s, 27° | - | - |
| 1777821114 | 21.67° C | 75% | 1018.1 hPa | 0 mm | 1.79 m/s, 15° | - | - |
| 1777820969 | 21.67° C | 75% | 1018.1 hPa | 0 mm | 1.79 m/s, 15° | - | - |
| 1777820597 | 21.11° C | 75% | 1018 hPa | 0 mm | 1.34 m/s, 326° | - | - |
| 1777820413 | 21.11° C | 75% | 1017.9 hPa | 0 mm | 1.79 m/s, 319° | - | - |
| 1777820370 | 21.11° C | 75% | 1018 hPa | 0 mm | 1.34 m/s, 326° | - | - |
| 1777820069 | 21.11° C | 75% | 1017.9 hPa | 0 mm | 1.79 m/s, 319° | - | - |
| 1777820050 | 21.11° C | 75% | 1017.9 hPa | 0 mm | 3.13 m/s, 309° | - | - |
| 1777819773 | 21.11° C | 75% | 1017.9 hPa | 0 mm | 3.13 m/s, 309° | - | - |
| 1777819727 | 21.11° C | 75% | 1017.9 hPa | 0 mm | 1.79 m/s, 34° | - | - |
| 1777819471 | 21.11° C | 75% | 1017.9 hPa | 0 mm | 1.79 m/s, 34° | - | - |
| 1777818868 | 21.67° C | 76% | 1017.7 hPa | 0 mm | 3.13 m/s, 27° | - | - |
| 1777818752 | 21.11° C | 77% | 1017.6 hPa | 0 mm | 1.34 m/s, 34° | - | - |
| 1777818574 | 21.11° C | 77% | 1017.6 hPa | 0 mm | 1.34 m/s, 34° | - | - |
| 1777818495 | 21.11° C | 77% | 1017.4 hPa | 0 mm | 4.02 m/s, 15° | - | - |
| 1777818268 | 21.11° C | 77% | 1017.4 hPa | 0 mm | 4.02 m/s, 15° | - | - |
| 1777817968 | 21.11° C | 78% | 1017.5 hPa | 0 mm | 1.79 m/s, 301° | - | - |
| 1777817873 | 20.56° C | 79% | 1017.5 hPa | 0 mm | 1.79 m/s, 53° | - | - |
| 1777817668 | 20.56° C | 79% | 1017.5 hPa | 0 mm | 1.79 m/s, 53° | - | - |
| 1777817369 | 20.56° C | 79% | 1017.4 hPa | 0 mm | 3.13 m/s, 345° | - | - |
| 1777817071 | 20° C | 82% | 1017.4 hPa | 0 mm | 3.13 m/s, 302° | - | - |
* Rain latest hour (hover to see other rain measurements)
** Current wind speed in m/s (hover to see current wind gust speed)